FW2736 Weather Reports


Display with metric or nautical units.
time (UTC)temp
F
wind
direction
speed
MPH
gust
MPH
rain 1hr
in
rain 24hr
in
rain mn
in
humidity
%
barometer
mb
20260902052247 69 302 6.0 0.0 0.00 0.00 0.00 46 963.4
20260902051747 69 221 6.0 0.0 0.00 0.00 0.00 46 963.4
20260902051248 69 321 5.0 0.0 0.00 0.00 0.00 47 963.4
20260902050747 70 280 6.0 0.0 0.00 0.00 0.00 47 963.4
20260902050245 69 127 6.0 0.0 0.00 0.00 0.00 47 963.4
20260902045745 70 222 6.0 0.0 0.00 0.00 0.00 47 963.4
20260902045245 70 234 6.0 0.0 0.00 0.00 0.00 47 963.4
20260902044744 70 257 3.0 0.0 0.00 0.00 0.00 45 963.4
20260902044242 70 53 4.0 0.0 0.00 0.00 0.00 45 963.4
20260902043742 71 258 4.0 0.0 0.00 0.00 0.00 45 963.1
20260902043442 71 248 3.0 0.0 0.00 0.00 0.00 44 963.1
20260902043042 72 341 0.0 0.0 0.00 0.00 0.00 41 962.8
20260902040740 72 296 5.0 0.0 0.00 0.00 0.00 40 962.8
20260902040243 72 254 3.0 0.0 0.00 0.00 0.00 40 962.8
20260902035803 72 250 3.0 0.0 0.00 0.00 0.00 39 962.8
20260902035239 73 268 4.0 0.0 0.00 0.00 0.00 38 962.8
20260902034739 73 116 4.0 0.0 0.00 0.00 0.00 38 962.4
20260902034238 74 56 3.0 0.0 0.00 0.00 0.00 37 962.4
20260902033739 74 40 7.0 0.0 0.00 0.00 0.00 36 962.1
20260902033239 75 302 7.0 0.0 0.00 0.00 0.00 36 962.1
20260902032738 75 54 6.0 0.0 0.00 0.00 0.00 35 962.1
20260902032237 75 333 6.0 0.0 0.00 0.00 0.00 34 962.1
20260902031737 75 122 4.0 0.0 0.00 0.00 0.00 34 962.1
20260902031238 75 62 3.0 0.0 0.00 0.00 0.00 33 962.1
20260902030738 75 339 3.0 0.0 0.00 0.00 0.00 29 961.7
20260902030236 76 273 3.0 0.0 0.00 0.00 0.00 25 961.7
20260902025740 76 323 2.0 0.0 0.00 0.00 0.00 23 961.7
20260902025236 77 153 3.0 0.0 0.00 0.00 0.00 23 961.7
20260902024735 77 266 3.0 0.0 0.00 0.00 0.00 27 961.7
20260902024235 77 268 3.0 0.0 0.00 0.00 0.00 23 961.7
20260902023736 77 324 3.0 0.0 0.00 0.00 0.00 21 961.7
20260902023235 78 323 4.0 0.0 0.00 0.00 0.00 21 961.7
20260902022735 79 308 4.0 0.0 0.00 0.00 0.00 20 961.7
20260902022233 80 307 3.0 0.0 0.00 0.00 0.00 20 961.4
20260902021734 80 2 7.0 0.0 0.00 0.00 0.00 21 961.4
20260902021234 80 89 6.0 0.0 0.00 0.00 0.00 19 961.4
20260902020733 81 314 6.0 0.0 0.00 0.00 0.00 18 961.4
20260902020231 81 309 6.0 0.0 0.00 0.00 0.00 18 961.4
20260902015735 81 343 6.0 0.0 0.00 0.00 0.00 17 961.4
20260902015233 82 238 6.0 0.0 0.00 0.00 0.00 17 961.4
20260902014735 82 309 6.0 0.0 0.00 0.00 0.00 17 961.4
20260902014232 82 186 6.0 0.0 0.00 0.00 0.00 17 961.1
20260902013732 82 284 6.0 0.0 0.00 0.00 0.00 17 961.4
20260902013231 83 4 6.0 0.0 0.00 0.00 0.00 17 961.1
20260902012732 83 11 8.0 0.0 0.00 0.00 0.00 18 961.1
20260902012230 83 309 8.0 0.0 0.00 0.00 0.00 19 961.1
20260902011731 83 249 6.0 0.0 0.00 0.00 0.00 20 961.4
20260902011229 84 328 6.0 0.0 0.00 0.00 0.00 20 961.1
20260902010728 84 289 4.0 0.0 0.00 0.00 0.00 21 961.4
20260902010229 84 312 8.0 0.0 0.00 0.00 0.00 21 961.4
20260902005729 85 307 14.0 0.0 0.00 0.00 0.00 21 961.1
20260902005228 85 144 14.0 0.0 0.00 0.00 0.00 24 961.1
20260902004728 85 70 14.0 0.0 0.00 0.00 0.00 24 961.1
20260902004227 86 97 9.0 0.0 0.00 0.00 0.00 24 961.1
20260902003729 86 140 9.0 0.0 0.00 0.00 0.00 24 961.1
20260902003228 87 106 9.0 0.0 0.00 0.00 0.00 24 961.1
20260902002727 86 73 12.0 0.0 0.00 0.00 0.00 23 961.1
20260902002227 87 132 11.0 0.0 0.00 0.00 0.00 23 961.1
20260902001727 87 120 12.0 0.0 0.00 0.00 0.00 23 961.1
20260902001328 88 129 15.0 0.0 0.00 0.00 0.00 23 961.1
20260902000329 89 6 11.0 0.0 0.00 0.00 0.00 22 961.1
20260901235540 89 108 14.0 0.0 0.00 0.00 0.00 23 961.1
20260901234741 90 183 16.0 0.0 0.00 0.00 0.00 23 961.1
20260901234246 91 148 12.0 0.0 0.00 0.00 0.00 22 961.1
20260901233749 91 144 12.0 0.0 0.00 0.00 0.00 23 961.1
20260901233233 90 76 12.0 0.0 0.00 0.00 0.00 23 961.1
20260901232724 90 238 11.0 0.0 0.00 0.00 0.00 23 961.1
20260901232313 91 122 12.0 0.0 0.00 0.00 0.00 22 961.1
20260901231804 91 182 12.0 0.0 0.00 0.00 0.00 22 961.1
20260901231239 91 118 14.0 0.0 0.00 0.00 0.00 23 961.1
20260901230738 91 102 14.0 0.0 0.00 0.00 0.00 23 961.1
20260901230249 91 159 13.0 0.0 0.00 0.00 0.00 23 961.1
20260901225728 91 156 14.0 0.0 0.00 0.00 0.00 23 961.1
20260901225220 92 153 13.0 0.0 0.00 0.00 0.00 23 961.1
20260901224725 92 188 13.0 0.0 0.00 0.00 0.00 23 961.1
20260901224249 93 168 14.0 0.0 0.00 0.00 0.00 22 961.4
20260901223743 93 137 16.0 0.0 0.00 0.00 0.00 23 961.4
20260901223249 93 127 13.0 0.0 0.00 0.00 0.00 22 961.1
20260901222720 93 136 12.0 0.0 0.00 0.00 0.00 23 961.4
20260901222220 93 141 13.0 0.0 0.00 0.00 0.00 22 961.4
20260901221719 92 171 13.0 0.0 0.00 0.00 0.00 22 961.4
20260901221241 93 141 11.0 0.0 0.00 0.00 0.00 21 961.4
20260901220741 93 282 11.0 0.0 0.00 0.00 0.00 21 961.4
20260901220240 94 106 7.0 0.0 0.00 0.00 0.00 20 961.4
20260901215741 93 147 7.0 0.0 0.00 0.00 0.00 20 961.4
20260901215421 93 321 4.0 0.0 0.00 0.00 0.00 19 961.4
20260901205236 94 6 11.0 0.0 0.00 0.00 0.00 16 962.1
20260901204737 93 136 12.0 0.0 0.00 0.00 0.00 16 962.1
20260901204212 95 150 12.0 0.0 0.00 0.00 0.00 15 962.1
20260901203738 96 268 8.0 0.0 0.00 0.00 0.00 14 962.1
20260901203212 95 223 5.0 0.0 0.00 0.00 0.00 14 962.1
20260901201413 94 145 12.0 0.0 0.00 0.00 0.00 14 962.4
20260901201012 95 354 5.0 0.0 0.00 0.00 0.00 14 962.4
20260901200219 94 307 9.0 0.0 0.00 0.00 0.00 13 962.4
20260901195723 93 90 9.0 0.0 0.00 0.00 0.00 14 962.8
20260901195222 94 228 6.0 0.0 0.00 0.00 0.00 15 962.8
20260901194711 93 292 8.0 0.0 0.00 0.00 0.00 14 962.8
20260901194210 92 313 9.0 0.0 0.00 0.00 0.00 15 962.8
20260901194014 93 325 9.0 0.0 0.00 0.00 0.00 15 962.8
20260901193211 92 289 10.0 0.0 0.00 0.00 0.00 15 963.1
20260901192713 92 327 10.0 0.0 0.00 0.00 0.00 15 962.8
20260901192212 92 139 8.0 0.0 0.00 0.00 0.00 15 963.1
20260901191713 91 110 8.0 0.0 0.00 0.00 0.00 14 963.1
20260901191414 90 77 7.0 0.0 0.00 0.00 0.00 15 963.1
20260901191112 90 111 0.0 0.0 0.00 0.00 0.00 17 963.4
20260901185742 89 128 10.0 0.0 0.00 0.00 0.00 17 963.4
20260901185213 89 96 12.0 0.0 0.00 0.00 0.00 17 963.4
20260901184713 89 108 9.0 0.0 0.00 0.00 0.00 17 963.4
20260901184213 90 123 9.0 0.0 0.00 0.00 0.00 16 963.4
20260901183735 90 116 8.0 0.0 0.00 0.00 0.00 16 963.4
20260901183213 90 141 7.0 0.0 0.00 0.00 0.00 16 963.4
20260901182713 88 164 9.0 0.0 0.00 0.00 0.00 17 963.4
20260901182412 87 110 9.0 0.0 0.00 0.00 0.00 16 963.4
20260901181712 87 135 10.0 0.0 0.00 0.00 0.00 18 963.8
20260901181241 87 120 10.0 0.0 0.00 0.00 0.00 18 963.4
20260901180717 87 143 9.0 0.0 0.00 0.00 0.00 18 963.8
20260901180214 87 128 8.0 0.0 0.00 0.00 0.00 19 963.8
20260901175712 87 156 8.0 0.0 0.00 0.00 0.00 20 963.8
20260901175314 86 138 8.0 0.0 0.00 0.00 0.00 23 963.8
20260901174223 86 128 8.0 0.0 0.00 0.00 0.00 24 963.8
20260901173737 86 93 7.0 0.0 0.00 0.00 0.00 24 963.8
20260901173212 87 174 6.0 0.0 0.00 0.00 0.00 25 963.8
20260901172711 88 138 6.0 0.0 0.00 0.00 0.00 24 963.8
20260901172236 87 137 5.0 0.0 0.00 0.00 0.00 26 963.8
20260901171714 87 170 4.0 0.0 0.00 0.00 0.00 26 963.8
20260901171237 86 332 5.0 0.0 0.00 0.00 0.00 26 963.8
20260901170713 86 83 5.0 0.0 0.00 0.00 0.00 26 963.8
20260901170230 86 90 4.0 0.0 0.00 0.00 0.00 26 963.8
20260901165740 85 135 3.0 0.0 0.00 0.00 0.00 26 963.8
20260901165242 84 82 3.0 0.0 0.00 0.00 0.00 26 963.8
20260901164738 83 217 3.0 0.0 0.00 0.00 0.00 29 963.8
20260901164243 82 23 5.0 0.0 0.00 0.00 0.00 28 963.8
20260901163742 82 133 4.0 0.0 0.00 0.00 0.00 28 963.8
20260901163212 82 237 4.0 0.0 0.00 0.00 0.00 28 963.8
20260901162740 81 176 4.0 0.0 0.00 0.00 0.00 28 963.8
20260901162213 80 38 6.0 0.0 0.00 0.00 0.00 29 963.8
20260901161800 80 158 4.0 0.0 0.00 0.00 0.00 29 963.8
20260901161300 80 50 4.0 0.0 0.00 0.00 0.00 29 963.8
20260901160800 80 204 3.0 0.0 0.00 0.00 0.00 29 963.8
20260901160305 79 33 3.0 0.0 0.00 0.00 0.00 30 963.8
20260901155803 78 14 4.0 0.0 0.00 0.00 0.00 31 963.8
20260901155300 76 10 4.0 0.0 0.00 0.00 0.00 32 963.4
20260901154801 75 288 4.0 0.0 0.00 0.00 0.00 33 963.8
20260901154301 74 20 3.0 0.0 0.00 0.00 0.00 34 963.4
20260901153802 74 78 3.0 0.0 0.00 0.00 0.00 36 963.4
20260901153300 73 339 4.0 0.0 0.00 0.00 0.00 38 963.4
20260901152801 72 11 4.0 0.0 0.00 0.00 0.00 38 963.4
20260901152300 72 13 4.0 0.0 0.00 0.00 0.00 39 963.4
20260901151758 71 286 3.0 0.0 0.00 0.00 0.00 40 963.8
20260901151300 71 16 3.0 0.0 0.00 0.00 0.00 42 963.4
20260901150757 70 265 3.0 0.0 0.00 0.00 0.00 43 963.4
20260901150257 70 37 3.0 0.0 0.00 0.00 0.00 46 963.4
20260901145759 71 55 3.0 0.0 0.00 0.00 0.00 46 963.4
20260901145541 71 25 2.0 0.0 0.00 0.00 0.00 43 963.4
20260901145056 71 79 2.0 0.0 0.00 0.00 0.00 44 963.4
20260901142756 67 118 2.0 0.0 0.00 0.00 0.00 51 963.4
20260901142256 65 346 0.0 0.0 0.00 0.00 0.00 55 963.4
20260901141756 64 346 1.0 0.0 0.00 0.00 0.00 58 963.4
20260901141357 63 347 1.0 0.0 0.00 0.00 0.00 61 963.4
20260901134753 56 288 2.0 0.0 0.00 0.00 0.00 69 962.8
20260901134254 56 288 2.0 0.0 0.00 0.00 0.00 70 962.8
20260901133755 55 162 2.0 0.0 0.00 0.00 0.00 68 962.8
20260901133457 56 317 0.0 0.0 0.00 0.00 0.00 68 962.8
20260901133055 56 317 0.0 0.0 0.00 0.00 0.00 68 962.4
20260901130755 56 302 2.0 0.0 0.00 0.00 0.00 68 962.4
20260901130253 55 311 2.0 0.0 0.00 0.00 0.00 68 962.4
20260901125754 55 322 0.0 0.0 0.00 0.00 0.00 68 962.4
20260901125253 56 322 0.0 0.0 0.00 0.00 0.00 67 962.4
20260901124755 56 322 0.0 0.0 0.00 0.00 0.00 67 962.4
20260901124250 56 322 0.0 0.0 0.00 0.00 0.00 68 962.4
20260901123752 56 322 0.0 0.0 0.00 0.00 0.00 68 962.4
20260901123251 56 322 0.0 0.0 0.00 0.00 0.00 69 962.4
20260901122848 56 322 0.0 0.0 0.00 0.00 0.00 69 962.4
20260901120849 57 322 0.0 0.0 0.00 0.00 0.00 67 962.4
20260901120349 57 322 0.0 0.0 0.00 0.00 0.00 66 962.4
20260901115848 57 322 1.0 0.0 0.00 0.00 0.00 66 962.4
20260901115347 57 323 1.0 0.0 0.00 0.00 0.00 66 962.4
20260901114846 57 310 3.0 0.0 0.00 0.00 0.00 65 962.8
20260901114346 57 313 2.0 0.0 0.00 0.00 0.00 63 962.4
20260901113847 57 313 0.0 0.0 0.00 0.00 0.00 63 962.4
20260901113248 57 313 1.0 0.0 0.00 0.00 0.00 63 962.8
20260901103341 60 279 2.0 0.0 0.00 0.00 0.00 68 962.8
20260901102839 60 233 0.0 0.0 0.00 0.00 0.00 68 962.8
20260901092838 63 245 3.0 0.0 0.00 0.00 0.00 66 962.4
20260901092335 63 277 2.0 0.0 0.00 0.00 0.00 65 962.4
20260901091737 63 332 2.0 0.0 0.00 0.00 0.00 62 962.4
20260901074829 64 228 3.0 0.0 0.00 0.00 0.00 56 962.8
20260901074332 64 194 2.0 0.0 0.00 0.00 0.00 59 962.8
20260901073830 65 288 3.0 0.0 0.00 0.00 0.00 60 962.8
20260901073330 65 279 3.0 0.0 0.00 0.00 0.00 57 962.8
20260901072828 66 162 3.0 0.0 0.00 0.00 0.00 55 962.8
20260901072328 66 311 3.0 0.0 0.00 0.00 0.00 54 962.8
20260901071828 66 308 2.0 0.0 0.00 0.00 0.00 55 962.8
20260901071228 66 302 2.0 0.0 0.00 0.00 0.00 56 962.8
20260901070934 66 174 0.0 0.0 0.00 0.00 0.00 53 962.8
20260901065827 66 240 3.0 0.0 0.00 0.00 0.00 55 962.8
20260901065425 66 241 2.0 0.0 0.00 0.00 0.00 56 962.8
20260901062824 68 292 2.0 0.0 0.00 0.00 0.00 54 962.4
20260901062325 68 291 2.0 0.0 0.00 0.00 0.00 54 962.4
20260901061826 68 298 0.0 0.0 0.00 0.00 0.00 51 962.4
20260901061425 69 298 2.0 0.0 0.00 0.00 0.00 50 962.4
20260901054824 71 294 3.0 0.0 0.00 0.00 0.00 44 962.4
20260901054323 72 259 3.0 0.0 0.00 0.00 0.00 44 962.4
20260901053822 72 96 4.0 0.0 0.00 0.00 0.00 46 962.4
20260901053323 72 55 3.0 0.0 0.00 0.00 0.00 46 962.4
20260901052823 72 13 3.0 0.0 0.00 0.00 0.00 48 962.4